Location: Little Baddow
(51.7333°N, 0.5667°E)
Time: 07:12:49
(UTC+00:00)

NOSS 0 Rocket - Pass Details

Date: 08 November 2025
Orbit: 934 x 953 km, 70.0° (Epoch: 11 December)

Event Time Altitude Azimuth Distance (km) Brightness Sun altitude
Rises 06:22:18 0° 235° (SW) 3,583 6.6 -6.9°
Reaches altitude 10° 06:24:57 10° 242° (WSW) 2,643 5.9 -6.5°
Maximum altitude 06:30:46 44° 314° (NW) 1,276 4.3 -5.7°
Drops below altitude 10° 06:36:40 10° 26° (NNE) 2,663 6.4 -4.8°
Sets 06:39:20 0° 33° (NNE) 3,613 7.1 -4.4°
